timestamp,surface_pressure_avg,surface_temp_avg,battery_voltage,lat,long
2020-02-15 00:09:01+00:00,243.4997,0.4,12.81,47.84626,-54.09684
2020-02-15 00:19:01+00:00,242.2464,0.38,12.65,47.84626,-54.09684
2020-02-15 00:29:01+00:00,241.7148,0.31,12.65,47.84626,-54.09684
2020-02-15 00:39:01+00:00,251.4147,0.3,12.65,47.84626,-54.09684
2020-02-15 00:49:01+00:00,261.0564,0.2,12.65,47.84626,-54.09684
2020-02-15 00:59:01+00:00,256.8648,0.2,12.65,47.84626,-54.09684
2020-02-15 01:09:01+00:00,256.0398,0.1,12.65,47.84626,-54.09684
2020-02-15 01:19:01+00:00,267.2114,0.02,12.57,47.84626,-54.09684
2020-02-15 01:29:01+00:00,274.0297,0.0,12.57,47.84626,-54.09684
2020-02-15 01:39:01+00:00,272.3398,-0.1,12.57,47.84626,-54.09684
2020-02-15 01:49:01+00:00,280.5447,-0.11,12.57,47.84626,-54.09684
2020-02-15 01:59:01+00:00,292.423,-0.08,12.57,47.84626,-54.09684
2020-02-15 02:09:01+00:00,296.623,-0.1,12.57,47.84626,-54.09684
2020-02-15 02:19:01+00:00,302.013,-0.17,12.57,47.84626,-54.09684
2020-02-15 02:29:01+00:00,314.7247,-0.2,12.57,47.84626,-54.09684
2020-02-15 02:39:01+00:00,318.6714,-0.2,12.57,47.84626,-54.09684
2020-02-15 02:49:01+00:00,321.878,-0.2,12.57,47.84626,-54.09684
2020-02-15 02:59:01+00:00,332.5797,-0.2,12.57,47.84626,-54.09684
2020-02-15 03:09:01+00:00,336.0346,-0.22,12.57,47.84626,-54.09684
2020-02-15 03:19:01+00:00,328.9162,-0.26,12.49,47.84626,-54.09684
2020-02-15 03:29:01+00:00,333.0064,-0.22,12.49,47.84626,-54.09684
2020-02-15 03:39:01+00:00,340.5262,-0.3,12.49,47.84626,-54.09684
2020-02-15 03:49:01+00:00,335.463,-0.3,12.49,47.84626,-54.09684
2020-02-15 03:59:01+00:00,332.733,-0.2,12.49,47.84626,-54.09684
2020-02-15 04:09:01+00:00,342.783,-0.2,12.49,47.84626,-54.09684
2020-02-15 04:19:01+00:00,345.2013,-0.3,12.49,47.84626,-54.09684
2020-02-15 04:29:01+00:00,335.1413,-0.2,12.49,47.84626,-54.09684
2020-02-15 04:39:01+00:00,336.7847,-0.2,12.49,47.84626,-54.09684
2020-02-15 04:49:01+00:00,341.458,-0.2,12.49,47.84626,-54.09684
2020-02-15 04:59:01+00:00,340.3445,-0.25,12.49,47.84626,-54.09684
2020-02-15 05:09:01+00:00,339.5512,-0.3,12.49,47.84626,-54.09684
2020-02-15 05:19:01+00:00,345.288,-0.3,12.49,47.84626,-54.09684
2020-02-15 05:29:01+00:00,347.6862,-0.3,12.49,47.84626,-54.09684
2020-02-15 05:39:01+00:00,343.713,-0.3,12.49,47.84626,-54.09684
2020-02-15 05:49:01+00:00,346.1329,-0.27,12.49,47.84626,-54.09684
2020-02-15 05:59:01+00:00,344.1063,-0.29,12.49,47.84626,-54.09684
2020-02-15 06:09:01+00:00,340.8397,-0.28,12.49,47.84626,-54.09684
2020-02-15 06:19:01+00:00,339.0912,-0.26,12.49,47.84626,-54.09684
2020-02-15 06:29:01+00:00,330.8613,-0.21,12.49,47.84626,-54.09684
2020-02-15 06:39:01+00:00,320.1396,-0.2,12.49,47.84626,-54.09684
2020-02-15 06:49:01+00:00,314.1346,-0.2,12.49,47.84626,-54.09684
2020-02-15 06:59:01+00:00,310.3363,-0.2,12.49,47.84626,-54.09684
2020-02-15 07:09:01+00:00,296.7847,-0.22,12.49,47.84626,-54.09684
2020-02-15 07:19:01+00:00,283.2064,-0.26,12.49,47.84626,-54.09684
2020-02-15 07:29:01+00:00,277.6947,-0.1,12.49,47.84626,-54.09684
2020-02-15 07:39:01+00:00,273.5581,-0.28,12.49,47.84626,-54.09684
2020-02-15 07:49:01+00:00,260.5764,-0.3,12.49,47.84626,-54.09684
2020-02-15 07:59:01+00:00,249.2197,-0.3,12.49,47.84626,-54.09684
2020-02-15 08:09:01+00:00,242.5064,-0.27,12.49,47.84626,-54.09684
2020-02-15 08:19:01+00:00,236.7848,-0.21,12.49,47.84626,-54.09684
2020-02-15 08:29:01+00:00,227.2147,-0.2,12.49,47.84626,-54.09684
2020-02-15 08:39:01+00:00,218.7781,-0.2,12.49,47.84626,-54.09684
2020-02-15 08:49:01+00:00,215.2381,-0.3,12.49,47.84626,-54.09684
2020-02-15 08:59:01+00:00,211.2814,-0.3,12.49,47.84626,-54.09684
2020-02-15 09:09:01+00:00,207.2865,-0.4,12.49,47.84626,-54.09684
2020-02-15 09:19:01+00:00,204.1781,-0.4,12.49,47.84626,-54.09684
2020-02-15 09:29:01+00:00,201.4114,-0.4,12.49,47.84626,-54.09684
2020-02-15 09:39:01+00:00,200.1581,-0.4,12.49,47.84626,-54.09684
2020-02-15 09:49:01+00:00,198.4048,-0.4,12.49,47.84626,-54.09684
2020-02-15 09:59:01+00:00,198.2698,-0.4,12.49,47.84626,-54.09684
2020-02-15 10:09:01+00:00,200.1381,-0.32,12.49,47.84626,-54.09684
2020-02-15 10:19:01+00:00,201.1931,-0.3,12.49,47.84626,-54.09684
2020-02-15 10:29:01+00:00,204.9698,-0.4,12.49,47.84626,-54.09684
2020-02-15 10:39:01+00:00,208.0548,-0.5,12.49,47.84626,-54.09684
2020-02-15 10:49:01+00:00,209.0681,-0.5,12.49,47.84626,-54.09684
2020-02-15 10:59:01+00:00,209.2864,-0.55,12.49,47.84626,-54.09684
2020-02-15 11:09:01+00:00,211.0914,-0.55,12.49,47.84626,-54.09684
2020-02-15 11:19:01+00:00,212.9164,-0.5,12.65,47.84626,-54.09684
2020-02-15 11:29:01+00:00,212.9532,-0.6,12.65,47.84626,-54.09684
2020-02-15 11:39:01+00:00,218.1048,-0.6,12.65,47.84626,-54.09684
2020-02-15 11:49:01+00:00,225.2064,-0.6,12.65,47.84626,-54.09684
2020-02-15 11:59:01+00:00,226.0298,-0.61,12.65,47.84626,-54.09684
2020-02-15 12:09:01+00:00,225.1097,-0.7,12.65,47.84626,-54.09684
2020-02-15 12:19:01+00:00,229.4864,-0.63,14.96,47.84626,-54.09684
2020-02-15 12:29:01+00:00,235.3264,-0.25,14.96,47.84626,-54.09684
2020-02-15 12:39:01+00:00,236.6281,-0.1,14.96,47.84626,-54.09684
2020-02-15 12:49:01+00:00,234.0364,-0.05,14.96,47.84626,-54.09684
2020-02-15 12:59:01+00:00,235.9448,-0.3,14.96,47.84626,-54.09684
2020-02-15 13:09:01+00:00,242.1347,-0.35,14.96,47.84626,-54.09684
2020-02-15 13:19:01+00:00,245.1664,-0.3,15.11,47.84626,-54.09684
2020-02-15 13:29:01+00:00,247.2898,-0.36,15.11,47.84626,-54.09684
2020-02-15 13:39:01+00:00,254.7498,-0.36,15.11,47.84626,-54.09684
2020-02-15 13:49:01+00:00,262.9681,-0.32,15.11,47.84626,-54.09684
2020-02-15 13:59:01+00:00,265.2931,-0.3,15.11,47.84626,-54.09684
2020-02-15 14:09:01+00:00,272.2348,-0.3,15.11,47.84626,-54.09684
2020-02-15 14:19:01+00:00,283.528,-0.48,15.04,47.84626,-54.09684
2020-02-15 14:29:01+00:00,289.1531,-0.41,15.04,47.84626,-54.09684
2020-02-15 14:39:01+00:00,291.9247,-0.4,15.04,47.84626,-54.09684
2020-02-15 14:49:01+00:00,302.108,-0.4,15.04,47.84626,-54.09684
2020-02-15 14:59:01+00:00,309.1763,-0.4,15.04,47.84626,-54.09684
2020-02-15 15:09:01+00:00,312.603,-0.4,15.04,47.84626,-54.09684
2020-02-15 15:19:01+00:00,315.3213,-0.33,14.96,47.84626,-54.09684
2020-02-15 15:29:01+00:00,323.6413,-0.3,14.96,47.84626,-54.09684
2020-02-15 15:39:01+00:00,329.4530000000001,-0.3,14.96,47.84626,-54.09684
2020-02-15 15:49:01+00:00,332.7079,-0.2,14.96,47.84626,-54.09684
2020-02-15 15:59:01+00:00,334.4064,-0.11,14.96,47.84626,-54.09684
2020-02-15 16:09:01+00:00,338.8179,0.0,14.96,47.84626,-54.09684
2020-02-15 16:19:01+00:00,340.6512,-0.2,14.8,47.84626,-54.09684
2020-02-15 16:29:01+00:00,344.4846,-0.2,14.8,47.84626,-54.09684
2020-02-15 16:39:01+00:00,345.6547,-0.2,14.8,47.84626,-54.09684
2020-02-15 16:49:01+00:00,347.7113,-0.2,14.8,47.84626,-54.09684
2020-02-15 16:59:01+00:00,347.0146,-0.2,14.8,47.84626,-54.09684
2020-02-15 17:09:01+00:00,349.1429,-0.2,14.8,47.84626,-54.09684
2020-02-15 17:19:01+00:00,349.1763,-0.21,14.72,47.84626,-54.09684
2020-02-15 17:29:01+00:00,349.7729,-0.15,14.72,47.84626,-54.09684
2020-02-15 17:39:01+00:00,351.49300000000005,-0.18,14.72,47.84626,-54.09684
2020-02-15 17:49:01+00:00,351.6945,-0.11,14.72,47.84626,-54.09684
2020-02-15 17:59:01+00:00,348.528,-0.1,14.72,47.84626,-54.09684
2020-02-15 18:09:01+00:00,342.1746,-0.06,14.72,47.84626,-54.09684
2020-02-15 18:19:01+00:00,337.6197,-0.01,14.64,47.84626,-54.09684
2020-02-15 18:29:01+00:00,335.6147,-0.0,14.64,47.84626,-54.09684
2020-02-15 18:39:01+00:00,329.6912,-0.0,14.64,47.84626,-54.09684
2020-02-15 18:49:01+00:00,323.0297,0.0,14.64,47.84626,-54.09684
2020-02-15 18:59:01+00:00,318.823,0.0,14.64,47.84626,-54.09684
2020-02-15 19:09:01+00:00,311.1997,0.0,14.64,47.84626,-54.09684
2020-02-15 19:19:01+00:00,302.3347,0.06,14.32,47.84626,-54.09684
2020-02-15 19:29:01+00:00,294.658,0.09,14.32,47.84626,-54.09684
2020-02-15 19:39:01+00:00,286.9514,0.11,14.32,47.84626,-54.09684
2020-02-15 19:49:01+00:00,273.7747,0.2,14.32,47.84626,-54.09684
2020-02-15 19:59:01+00:00,262.9648,0.21,14.32,47.84626,-54.09684
2020-02-15 20:09:01+00:00,256.4197,0.3,14.32,47.84626,-54.09684
2020-02-15 20:19:01+00:00,247.07299999999998,0.32,14.08,47.84626,-54.09684
2020-02-15 20:29:01+00:00,236.2881,0.36,14.08,47.84626,-54.09684
2020-02-15 20:39:01+00:00,229.0164,0.4,14.08,47.84626,-54.09684
2020-02-15 20:49:01+00:00,223.9998,0.51,14.08,47.84626,-54.09684
2020-02-15 20:59:01+00:00,220.1781,0.62,14.08,47.84626,-54.09684
2020-02-15 21:09:01+00:00,215.8148,0.73,14.08,47.84626,-54.09684
2020-02-15 21:19:01+00:00,207.3348,0.8,13.53,47.84626,-54.09684
2020-02-15 21:29:01+00:00,203.2032,0.84,13.53,47.84626,-54.09684
2020-02-15 21:39:01+00:00,203.3965,0.9,13.53,47.84626,-54.09684
2020-02-15 21:49:01+00:00,202.9581,0.9,13.53,47.84626,-54.09684
2020-02-15 21:59:01+00:00,201.5698,0.91,13.53,47.84626,-54.09684
2020-02-15 22:09:01+00:00,199.5248,0.93,13.53,47.84626,-54.09684
2020-02-15 22:19:01+00:00,199.5348,0.91,13.13,47.84626,-54.09684
2020-02-15 22:29:01+00:00,200.5914,0.9,13.13,47.84626,-54.09684
2020-02-15 22:39:01+00:00,203.4981,0.9,13.13,47.84626,-54.09684
2020-02-15 22:49:01+00:00,206.6298,0.9,13.13,47.84626,-54.09684
2020-02-15 22:59:01+00:00,209.7315,0.9,13.13,47.84626,-54.09684
2020-02-15 23:09:01+00:00,211.5731,0.9,13.13,47.84626,-54.09684
2020-02-15 23:19:01+00:00,214.4064,0.9,12.81,47.84626,-54.09684
2020-02-15 23:29:01+00:00,218.9048,0.94,12.81,47.84626,-54.09684
2020-02-15 23:39:01+00:00,219.0081,0.97,12.81,47.84626,-54.09684
2020-02-15 23:49:01+00:00,219.6981,0.99,12.81,47.84626,-54.09684
2020-02-15 23:59:01+00:00,224.9415,1.0,12.81,47.84626,-54.09684
